Chicago Executive, IL

2:41 AM CST on December 10, 2019 (GMT -0600)
Chicago Executive

Weather History for KPWK - October, 2019

Change the Weather History Date:

Tuesday, October 29, 2019

  Actual Average Record
Temperature  
Mean Temperature 40 °F 48 °F  
Max Temperature 46 °F 57 °F 77 °F (1999)
Min Temperature 34 °F 39 °F 29 °F (2008)
Degree Days  
Heating Degree Days 25 17  
Month to date heating degree days 357 372  
Since 1 July heating degree days 364 484  
Cooling Degree Days 0 0  
Month to date cooling degree days 13 11  
Year to date cooling degree days 996 789  
Moisture  
Dew Point 33 °F    
Average Humidity 80    
Maximum Humidity 93    
Minimum Humidity 60    
Precipitation  
Precipitation 0.14 in 0.08 in 0.51 in (2009)
Month to date precipitation 4.59 2.80  
Year to date precipitation 41.28 28.49  
Sea Level Pressure  
Sea Level Pressure 30.18 in    
Wind  
Wind Speed 7 mph ()    
Max Wind Speed 24 mph    
Max Gust Speed 32 mph    
Visibility 8.5 miles    
Events Rain    
T = Trace of Precipitation, MM = Missing Value Source: Averaged Metar Reports

Daily Weather History Graph

Daily Weather History Graph

Search for Another Location

Airport or City:

Astronomy

Oct. 29, 2019 Rise Set
Actual Time 7:20 AM CDT 5:49 PM CDT
Civil Twilight 6:51 AM CDT 6:18 PM CDT
Nautical Twilight 6:18 AM CDT 6:51 PM CDT
Astronomical Twilight 5:46 AM CDT 7:23 PM CDT
Moon 8:54 AM CDT (10/29) 7:12 PM CDT (10/29)
Length of Visible Light 11h 26m
Length of Day
10h 28m
Waxing Crescent, 3% of the Moon is Illuminated
Oct 29
Waxing Crescent
Nov 4
First Quarter
Nov 12
Full
Nov 19
Last Quarter
Nov 26
New

Hourly Weather History & Observations

Time (CDT) Temp. Windchill Dew Point Humidity Pressure Visibility Wind Dir Wind Speed Gust Speed Precip Events Conditions
12:52 AM 46.9 °F - 39.9 °F 77% 30.03 in 10.0 mi NW 5.8 mph - N/A   Overcast
1:42 AM 44.1 °F 39.0 °F 39.9 °F 85% 30.04 in 4.0 mi NNW 9.2 mph - 0.01 in Rain Light Rain
1:52 AM 43.0 °F 37.7 °F 39.9 °F 89% 30.04 in 4.0 mi NNW 9.2 mph - 0.03 in Rain Light Rain
2:29 AM 42.1 °F 35.7 °F 37.9 °F 85% 30.06 in 8.0 mi NNW 11.5 mph 18.4 mph 0.06 in Rain Light Rain
2:52 AM 41.0 °F 33.5 °F 37.0 °F 86% 30.09 in 10.0 mi NNW 13.8 mph 21.9 mph 0.07 in Rain Light Rain
3:01 AM 41.0 °F 33.1 °F 37.0 °F 86% 30.08 in 10.0 mi NW 15.0 mph 32.2 mph 0.00 in   Overcast
3:38 AM 37.0 °F 29.3 °F 33.1 °F 86% 30.08 in 6.0 mi North 11.5 mph - 0.01 in   Overcast
3:52 AM 37.0 °F 29.8 °F 33.1 °F 86% 30.09 in 5.0 mi North 10.4 mph - 0.01 in   Overcast
3:55 AM 37.0 °F 30.4 °F 33.1 °F 86% 30.08 in 6.0 mi North 9.2 mph - 0.00 in   Overcast
4:29 AM 37.0 °F 31.6 °F 33.1 °F 86% 30.08 in 6.0 mi North 6.9 mph - 0.03 in Rain Light Rain
4:52 AM 37.0 °F 34.5 °F 35.1 °F 93% 30.09 in 9.0 mi NNE 3.5 mph - 0.03 in Rain Light Rain
5:33 AM 37.9 °F 32.1 °F 34.0 °F 86% 30.09 in 10.0 mi North 8.1 mph - 0.00 in   Overcast
5:44 AM 37.9 °F 32.7 °F 34.0 °F 86% 30.09 in 10.0 mi North 6.9 mph - 0.00 in   Overcast
5:52 AM 37.9 °F 32.1 °F 34.0 °F 86% 30.11 in 10.0 mi NNW 8.1 mph - 0.00 in   Overcast
6:31 AM 37.9 °F 31.5 °F 34.0 °F 86% 30.12 in 10.0 mi NNW 9.2 mph - N/A   Overcast
6:40 AM 37.9 °F 31.5 °F 33.1 °F 83% 30.13 in 10.0 mi NNW 9.2 mph - N/A   Overcast
6:52 AM 37.0 °F 29.8 °F 33.1 °F 86% 30.14 in 10.0 mi NNW 10.4 mph - N/A   Overcast
7:52 AM 37.0 °F 31.0 °F 33.1 °F 86% 30.17 in 8.0 mi NNW 8.1 mph - N/A   Overcast
7:58 AM 37.0 °F 31.0 °F 33.1 °F 86% 30.16 in 9.0 mi NNW 8.1 mph - N/A   Overcast
8:05 AM 37.0 °F 31.0 °F 33.1 °F 86% 30.16 in 10.0 mi North 8.1 mph - N/A   Overcast
8:36 AM 37.0 °F 29.8 °F 33.1 °F 86% 30.17 in 10.0 mi NW 10.4 mph - N/A   Overcast
8:45 AM 37.0 °F 30.4 °F 32.0 °F 82% 30.18 in 10.0 mi NNW 9.2 mph - N/A   Overcast
8:52 AM 37.0 °F 31.0 °F 32.0 °F 82% 30.20 in 10.0 mi NNW 8.1 mph - N/A   Overcast
9:49 AM 37.4 °F 32.8 °F 33.8 °F 87% 30.20 in 4.0 mi North 5.8 mph - N/A   Overcast
9:52 AM 37.0 °F 31.6 °F 33.1 °F 86% 30.23 in 3.0 mi NNW 6.9 mph - N/A   Overcast
10:09 AM 37.0 °F 33.3 °F 33.1 °F 86% 30.21 in 2.5 mi NNW 4.6 mph - N/A   Overcast
10:52 AM 37.9 °F 32.1 °F 33.1 °F 83% 30.24 in 2.5 mi NNW 8.1 mph - N/A   Haze
11:52 AM 39.0 °F 34.8 °F 33.1 °F 79% 30.25 in 10.0 mi NNW 5.8 mph - N/A   Overcast
12:33 PM 39.9 °F 35.8 °F 33.1 °F 77% 30.22 in 10.0 mi NNW 5.8 mph - N/A   Overcast
12:52 PM 41.0 °F 37.1 °F 33.1 °F 73% 30.24 in 10.0 mi NW 5.8 mph - N/A   Overcast
1:52 PM 42.1 °F 36.6 °F 30.9 °F 65% 30.25 in 10.0 mi WNW 9.2 mph - N/A   Overcast
2:52 PM 41.0 °F 35.2 °F 30.0 °F 65% 30.26 in 10.0 mi WNW 9.2 mph - N/A   Overcast
3:52 PM 41.0 °F 36.4 °F 28.9 °F 62% 30.27 in 10.0 mi WNW 6.9 mph - N/A   Overcast
4:40 PM 39.9 °F 35.8 °F 28.0 °F 63% 30.27 in 10.0 mi NW 5.8 mph - N/A   Scattered Clouds
4:52 PM 41.0 °F 36.4 °F 28.0 °F 60% 30.28 in 10.0 mi WNW 6.9 mph - N/A   Clear
5:52 PM 37.9 °F 34.4 °F 27.0 °F 65% 30.30 in 10.0 mi NW 4.6 mph - N/A   Scattered Clouds
6:52 PM 36.0 °F 32.1 °F 27.0 °F 70% 30.30 in 10.0 mi North 4.6 mph - N/A   Clear
8:52 PM 35.1 °F - 28.0 °F 76% 30.35 in 10.0 mi Calm Calm - N/A   Clear
9:52 PM 36.0 °F 32.1 °F 28.0 °F 73% 30.34 in 10.0 mi North 4.6 mph - N/A   Clear
10:52 PM 37.0 °F 34.5 °F 28.9 °F 73% 30.35 in 10.0 mi NNW 3.5 mph - N/A   Scattered Clouds
11:52 PM 37.0 °F 34.5 °F 28.9 °F 73% 30.33 in 10.0 mi NNW 3.5 mph - N/A   Partly Cloudy